CAPE
0 0 0 0 0 0 0 0 0 0 0 0 0 0 0 0 0 0 0 0 0 0
0 0 0 0 0 0 0 0 0 0 0 0 0 0 0 0 0 0 0 0 0 0
0 0 0 0 0 0 0 0 0 0 0 0 0 0 0 0 0 0 0 0 0 0
0 0 0 0 0 0 0 0 0 0 0 0 0 0 0 0 0 0 0 0 0 0
0 0 0 0 0 0 0 0 0 0 0 0 0 0 0 0 0 0 0 0 0 0
0 0 0 0 0 0 0 0 0 0 0 0 0 0 0 0 0 0 0 0 0 0
0 0 0 0 0 0 0 0 0 0 0 0 0 0 0 0 0 0 0 0 0 0
0 0 0 0 0 0 0 0 0 0 0 0 0 0 0 0 0 0 0 0 0 0
0 0 0 0 0 0 0 0 0 0 0 0 0 0 0 0 0 0 0 0 0 0
0 0 0 0 0 0 0 0 0 0 0 0 0 0 0 0 0 0 0 0 0 0
0 0 0 0 0 0 0 0 0 0 0 0 0 0 0 0 0 0 0 0 0 0
0 0 0 0 0 0 0 0 0 0 0 0 0 0 0 0 0 0 0 0 0 0
0 0 0 0 0 0 0 0 0 0 0 0 0 0 0 0 0 0 0 0 0 0
0 0 0 0 0 0 0 0 0 0 0 0 0 0 0 0 0 0 0 0 0 0
CIN
0 0 0 0 0 0 0 0 0 0 0 0 0 0 0 0 0 0 0 0 0 0
0 0 0 0 0 0 0 0 0 0 0 0 0 0 0 0 0 0 0 0 0 0
0 0 0 0 0 0 0 0 0 0 0 0 0 0 0 0 0 0 0 0 0 0
0 0 0 0 0 0 0 0 0 0 0 0 0 0 0 0 0 0 0 0 0 0
0 0 0 0 0 0 0 0 0 0 0 0 0 0 0 0 0 0 0 0 0 0
0 0 0 0 0 0 0 0 0 0 0 0 0 0 0 0 0 0 0 0 0 0
0 0 0 0 0 0 0 0 0 0 0 0 0 0 0 0 0 0 0 0 0 0
0 0 0 0 0 0 0 0 0 0 0 0 0 0 0 0 0 0 0 0 0 0
0 0 0 0 0 0 0 0 0 0 0 0 0 0 0 0 0 0 0 0 0 0
0 0 0 0 0 0 0 0 0 0 0 0 0 0 0 0 0 0 0 0 0 0
0 0 0 0 0 0 0 0 0 0 0 0 0 0 0 0 0 0 0 0 0 0
0 0 0 0 0 0 0 0 0 0 0 0 0 0 0 0 0 0 0 0 0 0
0 0 0 0 0 0 0 0 0 0 0 0 0 0 0 0 0 0 0 0 0 0
0 0 0 0 0 0 0 0 0 0 0 0 0 0 0 0 0 0 0 0 0 0
Wind_Speed
9 8 9 8 8 8 8 8 8 8 10 10 8 8 8 7 7 7 8 9 8 6
7 7 9 9 8 8 7 6 8 9 10 10 10 10 9 8 9 7 9 9 9 9
7 8 9 6 10 9 9 8 7 9 10 10 11 11 10 10 9 9 9 8 9 10
7 7 6 9 11 11 10 10 11 10 11 12 12 11 11 13 11 12 13 11 11 14
8 6 6 8 11 9 11 10 13 11 12 12 13 12 13 14 13 14 14 15 13 15
8 8 7 8 8 7 9 11 11 11 12 13 13 13 13 15 15 15 15 15 14 16
9 8 7 7 7 7 8 10 11 12 13 13 14 13 14 14 15 15 15 15 15 16
9 8 9 11 9 7 6 8 11 12 12 13 11 10 13 14 15 16 16 15 15 16
8 8 8 10 11 10 10 8 7 8 11 12 10 16 20 17 14 16 16 16 15 15
8 7 9 9 10 11 12 10 11 9 7 10 11 17 20 22 16 14 15 16 15 14
7 10 10 8 10 10 10 9 10 11 11 8 9 16 19 21 16 16 17 16 16 17
6 11 11 10 11 9 9 11 9 9 10 10 12 14 17 15 13 13 16 15 16 17
10 11 11 11 11 7 7 10 9 12 9 11 11 15 17 15 8 11 10 12 14 20
11 12 9 8 9 9 10 9 9 11 11 9 9 12 16 17 9 9 10 10 10 10
Wind_Direction
207 206 214 210 206 214 212 217 214 207 216 217 211 212 207 216 221 203 216 212 210 208
223 215 210 213 209 216 215 214 210 205 213 218 217 211 205 221 225 219 220 224 218 216
238 237 224 209 217 216 223 217 217 209 214 216 217 216 207 219 219 215 225 224 218 219
275 240 225 226 229 226 225 216 222 218 218 219 219 214 215 224 223 217 228 224 219 229
351 319 263 244 243 235 225 219 225 223 222 224 222 215 215 222 223 222 226 229 227 232
353 1 334 289 268 249 238 240 236 227 223 226 227 220 217 220 223 224 225 227 222 230
341 342 341 330 315 287 262 252 244 237 233 227 228 223 224 223 226 228 229 228 224 226
325 333 344 345 337 322 297 272 262 254 242 239 228 223 224 224 226 229 232 231 225 226
324 332 334 334 331 329 329 318 288 266 255 247 237 235 224 221 226 228 231 234 232 232
316 323 329 326 325 327 326 320 322 305 272 259 254 247 238 227 232 234 234 234 236 235
305 320 322 320 318 318 318 311 315 309 306 283 273 261 254 245 239 241 240 237 235 235
295 318 315 314 313 309 310 315 310 307 306 301 292 277 267 258 258 251 248 244 238 236
304 312 304 303 302 294 297 299 306 305 300 290 291 291 279 272 264 263 257 249 245 239
296 301 287 291 295 296 296 297 297 298 297 286 275 287 286 281 274 266 266 259 256 245